#timestamp,LO_Frequency,Hit,StdDev 
1534701615.4,286047001.6,N
1534701635.2,286047001.5,N
1534701655.1,286047003.9,Y
1534701656.0,286047003.9,P
1534701675.8,286046999.9,N
1534701695.7,286046999.7,N
1534701715.5,286046999.8,N
1534701735.3,286046999.7,N
1534701755.2,286046999.9,N
1534701775.0,286046999.9,N
1534701775.9,286046999.9,N
1534701795.8,286047002.3,N
1534701815.6,286047002.8,N
1534701835.4,286046999.8,N
1534701855.3,286047000.0,N
1534701875.1,286047002.8,N
1534701895.8,286047002.2,N
1534701915.7,286047001.9,N
1534701935.5,286047003.9,N
1534701955.4,286047003.9,N
1534701975.2,286047003.5,N
1534701995.0,286047003.8,N
1534701995.9,286047003.8,N
1534702015.8,286047004.3,N
1534702035.6,286047003.2,N
1534702055.5,286047001.7,N
1534702075.3,286047004.4,N
1534702095.1,286047002.0,N
1534702115.9,286047002.0,N
1534702135.7,286047001.7,N
1534702155.6,286047001.6,N
1534702175.4,286047004.4,N
1534702195.2,286047001.3,N
1534702215.1,286047004.4,N
1534702216.0,286047004.4,N
1534702235.8,286047004.2,N
1534702255.6,286047003.9,N
1534702275.5,286047003.8,N
1534702295.3,286047003.4,N
1534702315.2,286047003.7,N
1534702335.9,286047005.6,Y
1534702355.7,286047000.3,P
1534702375.6,286047000.2,N
1534702395.4,286046999.8,N
1534702415.2,286047002.7,N
1534702435.1,286047001.5,N
1534702436.0,286047001.5,N
1534702455.8,286047001.9,N
1534702475.7,286047001.9,N
1534702495.5,286047002.5,N
1534702515.3,286047001.6,N
1534702535.2,286047001.5,N
1534702555.0,286047002.3,N
1534702555.9,286047002.3,N
1534702575.7,286047002.2,N
1534702595.6,286047002.1,N
1534702615.4,286047001.9,N
1534702635.3,286047001.9,N
1534702655.1,286047001.6,N
1534702656.0,286047001.6,N
1534702675.8,286047001.9,N
1534702695.7,286047001.8,N
1534702715.5,286047001.9,N
1534702735.3,286047004.3,Y
1534702755.2,286047000.2,P
1534702775.0,286046999.8,N
1534702775.9,286046999.8,N
1534702795.8,286047002.4,N
1534702815.6,286047002.8,N
1534702835.4,286047002.8,N
1534702855.3,286047002.7,N
1534702875.4,286046999.8,N
1534702895.2,286046999.7,N
1534702915.1,286046999.9,N
1534702916.0,286046999.9,N
1534702935.8,286047000.4,N
1534702955.6,286047000.0,N
1534702975.5,286046999.9,N
1534702995.3,286047002.7,N
1534703015.2,286047002.5,N
1534703035.9,286047002.3,N
1534703055.7,286047002.7,N
1534703075.6,286047000.1,N
1534703095.4,286047002.2,N
1534703115.3,286047002.1,N
1534703135.1,286047002.4,N
1534703136.0,286047002.4,N
1534703155.8,286047000.1,N
1534703175.7,286046999.8,N
1534703195.5,286047000.2,N
1534703215.3,286047002.8,N
1534703235.2,286047002.6,N
1534703255.0,286047002.2,N
1534703255.9,286047002.2,N
1534703275.8,286047002.2,N
1534703295.6,286047002.1,N
1534703315.4,286047002.1,N
1534703335.3,286047001.9,N
1534703355.1,286047001.6,N
1534703375.8,286047001.8,N
1534703395.8,286047004.2,Y
1534703415.6,286047002.2,P
1534703435.4,286047002.5,P
1534703455.3,286046999.9,N
1534703475.1,286046999.8,N
1534703495.8,286047001.5,N
1534703515.7,286047002.3,N
1534703535.5,286047002.2,N
1534703555.4,286047002.1,N
1534703575.2,286047002.6,N
1534703595.0,286047001.8,N
1534703595.9,286047001.8,N
1534703615.8,286047002.5,N
1534703635.6,286047002.7,Y
1534703655.4,286046998.5,P
1534703675.3,286046998.1,N
1534703695.1,286046998.6,N
1534703715.9,286046998.7,N
1534703735.7,286046998.5,N
1534703755.5,286046998.1,N
1534703775.4,286046998.2,N
1534703795.2,286046998.1,N
1534703815.0,286046998.6,N
1534703815.9,286046998.6,N
1534703835.8,286047000.8,N
1534703855.6,286047000.5,N
1534703875.5,286047000.5,N
1534703895.3,286047000.6,N
1534703915.1,286047000.3,N
1534703935.9,286047000.3,N
1534703955.7,286047000.0,N
1534703975.6,286047000.2,N
1534703995.4,286046999.8,N
1534704015.2,286047000.1,N
1534704035.1,286047000.6,N
1534704036.0,286047000.6,N
1534704055.8,286046999.7,N
1534704075.7,286047001.0,N
1534704095.5,286047000.7,N
1534704115.3,286047000.9,N
1534704135.2,286047002.6,N
1534704155.0,286047002.7,N
1534704155.9,286047002.7,N
1534704175.7,286047002.5,N
1534704195.6,286047000.0,N
1534704215.4,286047000.6,N
1534704235.3,286046999.9,N
1534704255.1,286047000.8,N
1534704256.0,286047000.8,N
1534704275.8,286046998.5,N
1534704295.7,286047000.8,N
1534704315.5,286047000.7,N
1534704335.3,286046998.5,N
1534704355.2,286046998.4,N
1534704375.0,286046998.8,N
1534704375.9,286046998.8,N
1534704395.8,286047001.1,N
1534704415.6,286047001.1,N
1534704435.4,286046998.6,N
1534704455.3,286046998.8,N
1534704475.1,286046996.5,N
1534704495.9,286046999.5,N
1534704515.7,286046999.0,N
1534704535.5,286046999.2,N
1534704555.4,286046999.2,N
1534704575.2,286046996.7,N
1534704595.0,286046997.0,N
1534704595.9,286046997.0,N
1534704615.8,286046994.9,N
1534704635.6,286046998.0,N
1534704655.5,286046997.4,N
1534704675.3,286046997.5,N
1534704695.1,286046997.2,N
1534704715.9,286046996.6,N
1534704735.7,286046996.6,N
1534704755.5,286046997.4,N
1534704775.4,286046997.5,N
1534704795.2,286046997.7,N
1534704815.1,286046997.6,N
1534704816.0,286046997.6,N
1534704835.8,286046994.9,Y
1534704855.6,286046997.0,P
1534704875.5,286046996.7,P
1534704895.3,286046996.5,P
1534704915.2,286046996.7,Y
1534704935.9,286047000.8,P
1534704955.7,286047000.7,N
1534704975.6,286047001.1,N
1534704995.4,286047000.9,N
1534705015.2,286047001.0,N
1534705035.1,286046998.3,N
1534705036.0,286046998.3,N
1534705055.8,286046998.7,N
1534705075.7,286046999.5,N
1534705095.5,286046999.2,N
1534705115.3,286046999.2,N
1534705135.2,286046999.6,N
1534705155.0,286046999.5,N
1534705155.9,286046999.5,N
1534705175.7,286046998.9,N
1534705195.6,286046999.5,N
